MOLNIYA 1-81

Last updated on Oct. 29, 2020, 5:52 a.m. UTC

1 21426U 91043A   20302.37760304  .00000061  00000-0  00000+0 0  9995
2 21426  64.0977  59.7348 7046126 271.0051  16.3016  2.00599818215162
UTC
Height (km)
Latitude
Longitude
Inclination
Orbital Period
UTC large
Height (km)
Speed (km/s)
/
Latitude / Longitude
Inclination (degrees)
Orbital Period (minutes)
Azimuth
Elevation
Range (km)
Doppler Factor
iOS Compass Heading
iOS Angle

Next 30 passes for location: Hong Kong

Rise time Rise Azimuth (degrees) Set time Set Azimuth (degrees) Duration Max altitude (degrees)

No matching passes for this satellites